OBJECT G

Satellite information

Favourite Embed

Satellite Type and Status

UNKNOWNIN ORBIT

Key statistics

Satellite OBJECT G at a glance.

Uptime

1707

Days in orbit

Revolutions

≈ 13.4

Per day

Orbit

LEO

Low Earth Orbit

Inclination

63.4

Latest

Satellite identification and parameters

Extended collection of information and parameters for OBJECT G.

Object identification

Identified? True

Debris? False

Object name: OBJECT G

International designator: 2021-014G

Object number (NORAD): 47697

Object ID (CCSDS): 47697

Country: PEOPLES REPUBLIC OF CHINA (PRC)

Current information (Y/N): Y

RCS size: SMALL

Orbital parameters

Period: 107.337 minutes

Inclination: 63.3958 deg

SMA: 7481.577 km

Apoapsis: 1208.131 km

Periapsis: 998.752 km

RAAN: 103.7683 deg

Eccentricy: 0.01399294

Argument of periapsis: 358.2884 deg

Mean anomaly: 1.7643 deg

Mean motion: 13.41569157 rev/day

Mean motion (dot): 0.0000001 rev/day2

B* drag term: 0.00016849667 1/REarth

Two-line elements (TLE)

Creation date: Oct. 28, 2025, 2:18 a.m.

Reference frame: TEME

Reference center: EARTH

Epoch: Oct. 27, 2025, 7:44 p.m. UTC

TLE line 0: 0 OBJECT G

TLE line 1: 1 47697U 21014G 25300.82228630 .00000010 00000-0 16850-3 0 9996

TLE line 2: 2 47697 63.3958 103.7683 0139929 358.2884 1.7643 13.41569157228823

Live tracking on map

Real-time ground track for satellite OBJECT G.

In-orbit conjunctions

There are no conjunctions computed for OBJECT G, at the moment. Check back to stay up to date, as we update our databases every day.

Go to all conjunctions

Associated space launch

OBJECT G was lifted into orbit during the mission ‘Long March 4C | Yaogan-31-03’, on board a Long March 4C space rocket.

The launch took place on Feb. 24, 2021, 2:22 a.m. from Launch Area 4 (SLS-2 / 603).

For more information about the launch, click the button.

Launch to space Long March 4C | Yaogan-31-03
Long March 4C | Yaogan-31-03

Agency: N/A

Status: Launch Successful

Launch date: Feb. 24, 2021, 2:22 a.m. UTC

Rocket: Long March 4C

Launch pad: Launch Area 4 (SLS-2 / 603)

Location: Jiuquan Satellite Launch Center, People's Republic of China

...

Latest news about this satellite

News about space launch
Long March 4C launches latest batch of Yaogan- 31 satellites

Three new satellites were launched from the Jiuquan Satellite Launch Center on Wednesday. The new satellites form part of the Group-3 of the Yaogan Weixing-31 mission. The launch took place at 02:22 UTC from Launch Pad 94 of the LC43 launch complex using ...

News about space launch
Another trio of Chinese military satellites successfully deployed

Weeks after the launch of an earlier trio of Chinese military satellites, another trio of spacecraft successfully took off Feb. 24 aboard a Long March 4C rocket on a clandestine mission that analysts believe may involve spying on foreign naval forces.

News about space launch
China launches trio of Yaogan-31 ocean reconnaissance satellites

A Long March 4C rocket sent a latest series of three Yaogan-31 reconnaissance satellites into orbit late Tuesday.


Newsletter sign-up

Weekly statistics, charts and insights to help you stay on top of the space industry.